Girona, Spain

12:09 AM CET on February 11, 2016 (GMT +0100)
Girona

Weather History for LEGE - February, 2014

Change the Weather History Date:

Friday, February 7, 2014

  Actual Average Record
Temperature  
Mean Temperature 48 °F -  
Max Temperature 60 °F 58 °F 64 °F (2000)
Min Temperature 37 °F 36 °F 26 °F (2015)
Degree Days  
Heating Degree Days 16    
Moisture  
Dew Point 45 °F    
Average Humidity 83    
Maximum Humidity 100    
Minimum Humidity 46    
Precipitation  
Precipitation 0.24 in 0.07 in - ()
Sea Level Pressure  
Sea Level Pressure 29.83 in    
Wind  
Wind Speed 9 mph ()    
Max Wind Speed 21 mph    
Max Gust Speed -    
Visibility 6.4 miles    
Events Fog , Rain , Hail , Thunderstorm    
Averages and records for this station are not official NWS values.
T = Trace of Precipitation, MM = Missing Value Source: Averaged Metar Reports

Daily Weather History Graph

Daily Weather History Graph

Search for Another Location

Airport or City:

Trip Planner

Search our weather history database for the weather conditions in past years. The results will help you decide how hot, cold, wet, or windy it might be!

Date:

Astronomy

Feb. 07, 2014 Rise Set
Actual Time 7:55 AM CET 6:11 PM CET
Civil Twilight 7:26 AM CET 6:40 PM CET
Nautical Twilight 6:52 AM CET 7:13 PM CET
Astronomical Twilight 6:20 AM CET 7:46 PM CET
Moon 12:11 PM CET (2/7) 1:56 AM CET (2/7)
Length of Visible Light 11h 14m
Length of Day
10h 16m
First Quarter, 56% of the Moon is Illuminated
Feb 7
First Quarter
Feb 15
Full
Feb 22
Last Quarter
Mar 1
New
Mar 8
First Quarter

Hourly Weather History & Observations

Time (CET) Temp. Windchill Dew Point Humidity Pressure Visibility Wind Dir Wind Speed Gust Speed Precip Events Conditions
12:00 AM 53 °F - 50 °F 84% 29.72 in - South 20.7 mph - -  
12:00 AM 53.6 °F - 48.2 °F 82% 29.74 in 6.2 mi South 19.6 mph - N/A   Partly Cloudy
12:30 AM 53.6 °F - 50.0 °F 88% 29.74 in 6.2 mi SSW 20.7 mph - N/A   Partly Cloudy
1:00 AM 53 °F - 50 °F 86% 29.72 in - SSW 17.3 mph - -  
1:00 AM 53.6 °F - 50.0 °F 88% 29.71 in 6.2 mi SSW 16.1 mph - N/A   Partly Cloudy
1:30 AM 51.8 °F - 50.0 °F 94% 29.71 in 6.2 mi SSW 13.8 mph - N/A   Partly Cloudy
2:00 AM 52 °F - 50 °F 89% 29.70 in - South 15.0 mph - -  
2:00 AM 51.8 °F - 50.0 °F 94% 29.71 in 6.2 mi South 15.0 mph - N/A   Partly Cloudy
2:30 AM 51.8 °F - 50.0 °F 94% 29.71 in 6.2 mi South 9.2 mph - N/A   Partly Cloudy
3:00 AM 52 °F - 50 °F 89% 29.70 in - South 10.4 mph - -  
3:00 AM 51.8 °F - 50.0 °F 94% 29.71 in 6.2 mi SSW 9.2 mph - N/A   Scattered Clouds
3:30 AM 51.8 °F - 50.0 °F 94% 29.68 in 6.2 mi SSW 9.2 mph - N/A   Scattered Clouds
4:00 AM 53 °F - 50 °F 87% 29.68 in - SSW 11.5 mph - -  
4:00 AM 53.6 °F - 50.0 °F 88% 29.68 in 6.2 mi SSW 11.5 mph - N/A   Scattered Clouds
4:30 AM 53.6 °F - 50.0 °F 88% 29.68 in 6.2 mi SSW 15.0 mph - N/A   Scattered Clouds
5:00 AM 53 °F - 51 °F 88% 29.68 in - SSW 11.5 mph - -  
5:00 AM 53.6 °F - 50.0 °F 88% 29.68 in 6.2 mi SSW 12.7 mph - N/A   Scattered Clouds
5:30 AM 51.8 °F - 50.0 °F 94% 29.68 in 6.2 mi SSW 4.6 mph - N/A   Mostly Cloudy
6:00 AM 51 °F - 49 °F 89% 29.70 in - West 2.3 mph - -  
6:00 AM 51.8 °F - 48.2 °F 88% 29.68 in 6.2 mi Variable 2.3 mph - N/A   Mostly Cloudy
6:30 AM 50.0 °F - 46.4 °F 87% 29.71 in 6.2 mi SW 3.5 mph - N/A   Scattered Clouds
7:00 AM 50 °F - 45 °F 78% 29.70 in 16 mi SSW 9.2 mph - -   Partly Cloudy
7:00 AM 50.0 °F - 44.6 °F 82% 29.71 in 6.2 mi SSW 8.1 mph - N/A   Scattered Clouds
7:30 AM 50.0 °F - 44.6 °F 82% 29.71 in 6.2 mi WNW 3.5 mph - N/A   Partly Cloudy
8:00 AM 51 °F - 43 °F 65% 29.75 in - NNW 2.3 mph - -  
8:00 AM 51.8 °F - 42.8 °F 71% 29.74 in 6.2 mi Variable 2.3 mph - N/A   Partly Cloudy
8:30 AM 50.0 °F - 44.6 °F 82% 29.77 in 6.2 mi NNE 2.3 mph - N/A   Scattered Clouds
9:00 AM 54 °F - 40 °F 49% 29.79 in - NW 4.6 mph - -  
9:00 AM 53.6 °F - 41.0 °F 62% 29.80 in 6.2 mi NW 4.6 mph - N/A   Scattered Clouds
9:30 AM 55.4 °F - 41.0 °F 58% 29.80 in 6.2 mi Variable 4.6 mph - N/A   Scattered Clouds
10:00 AM 55.4 °F - 46.4 °F 72% 29.83 in 6.2 mi NNE 8.1 mph - N/A   Scattered Clouds
10:30 AM 57.2 °F - 41.0 °F 55% 29.83 in 6.2 mi NNW 5.8 mph - N/A   Scattered Clouds
11:00 AM 58 °F - 44 °F 49% 29.85 in - NE 11.5 mph - -  
11:00 AM 57.2 °F - 42.8 °F 59% 29.86 in 6.2 mi NE 10.4 mph - N/A   Scattered Clouds
11:30 AM 55.4 °F - 41.0 °F 58% 29.86 in 6.2 mi ENE 9.2 mph - N/A   Scattered Clouds
12:00 PM 58 °F - 43 °F 47% 29.86 in - East 4.6 mph - -  
12:00 PM 57.2 °F - 42.8 °F 59% 29.86 in 6.2 mi ENE 3.5 mph - N/A   Scattered Clouds
12:30 PM 57.2 °F - 42.8 °F 59% 29.86 in 6.2 mi SE 3.5 mph - N/A   Scattered Clouds
1:00 PM 58 °F - 43 °F 46% 29.86 in 16 mi SSE 10.4 mph - -   Partly Cloudy
1:00 PM 57.2 °F - 42.8 °F 59% 29.86 in 6.2 mi SSE 8.1 mph - N/A   Scattered Clouds
1:30 PM 55.4 °F - 41.0 °F 58% 29.86 in 6.2 mi SE 6.9 mph - N/A   Mostly Cloudy
1:36 PM 55.4 °F - 42.8 °F 63% 29.86 in 6.2 mi SE 8.1 mph - N/A Hail , Thunderstorm Thunderstorms with Hail
2:00 PM 52 °F - 46 °F 72% 29.87 in - ENE 6.9 mph - -   Unknown Precipitation
2:00 PM 51.8 °F - 44.6 °F 76% 29.86 in 6.2 mi ENE 5.8 mph - N/A Thunderstorm Thunderstorm
2:15 PM 50.0 °F - 46.4 °F 87% 29.89 in 6.2 mi Variable 1.2 mph - N/A Rain , Thunderstorm Thunderstorms and Rain
2:30 PM 48.2 °F - 46.4 °F 93% 29.89 in 6.2 mi NNE 4.6 mph - N/A Rain , Thunderstorm Light Thunderstorms and Rain
3:00 PM 49 °F - 46 °F 87% 29.89 in - ENE 4.6 mph - -   Unknown Precipitation
3:00 PM 48.2 °F - 46.4 °F 93% 29.89 in 6.2 mi ENE 4.6 mph - N/A Rain Light Rain
3:22 PM 48.2 °F - 44.6 °F 87% 29.89 in 6.2 mi East 8.1 mph - N/A   Mostly Cloudy
3:30 PM 48.2 °F - 44.6 °F 87% 29.89 in 6.2 mi ENE 6.9 mph - N/A   Mostly Cloudy
4:00 PM 49 °F - 47 °F 90% 29.91 in 10 mi NE 3.5 mph - -   Mostly Cloudy
4:00 PM 48.2 °F - 46.4 °F 93% 29.89 in 6.2 mi ENE 3.5 mph - N/A   Mostly Cloudy
4:30 PM 48.2 °F - 46.4 °F 93% 29.92 in 6.2 mi NNE 4.6 mph - N/A   Mostly Cloudy
5:00 PM 49 °F - 47 °F 90% 29.92 in - NNE 6.9 mph - -  
5:00 PM 50.0 °F - 46.4 °F 87% 29.92 in 6.2 mi NE 5.8 mph - N/A   Mostly Cloudy
5:01 PM 48.2 °F - 46.4 °F 93% 29.92 in 6.2 mi NNE 5.8 mph - N/A Rain Rain
5:30 PM 48.2 °F - 44.6 °F 87% 29.95 in 6.2 mi North 8.1 mph - N/A Rain Rain
6:00 PM 46 °F - 45 °F 94% 29.95 in - NE 10.4 mph - -   Unknown Precipitation
6:00 PM 46.4 °F 41.5 °F 44.6 °F 93% 29.95 in 6.2 mi NE 10.4 mph - N/A Rain Light Rain
6:30 PM 44.6 °F 40.7 °F 42.8 °F 93% 29.95 in 6.2 mi NNE 6.9 mph - N/A Rain Light Rain
7:00 PM 46 °F - 44 °F 91% 29.98 in 9 mi NNE 8.1 mph - - Rain Light Drizzle
7:00 PM 46.4 °F 42.4 °F 42.8 °F 87% 29.98 in 6.2 mi North 8.1 mph - N/A Rain Light Rain
7:30 PM 44.6 °F 43.1 °F 42.8 °F 93% 29.98 in 6.2 mi NNE 3.5 mph - N/A   Mostly Cloudy
8:00 PM 43 °F - 43 °F 98% 29.99 in - WNW 1.2 mph - -  
8:00 PM 42.8 °F - 42.8 °F 100% 29.98 in 6.2 mi Variable 1.2 mph - N/A   Scattered Clouds
8:30 PM 41.0 °F - 41.0 °F 100% 29.98 in 6.2 mi Calm Calm - N/A   Scattered Clouds
9:00 PM 41 °F - 41 °F 100% 29.98 in - West 3.5 mph - -  
9:00 PM 41.0 °F 39.0 °F 41.0 °F 100% 29.98 in 6.2 mi West 3.5 mph - N/A   Partly Cloudy
9:30 PM 39.2 °F - 39.2 °F 100% 29.98 in 6.2 mi Calm Calm - N/A   Partly Cloudy
10:00 PM 40 °F - 40 °F 99% 29.96 in 2 mi SSW 2.3 mph - - Fog Light Fog
10:00 PM 39.2 °F - 39.2 °F 100% 29.95 in 2.5 mi SSW 1.2 mph - N/A Fog Patches of Fog
10:30 PM 39.2 °F - 37.4 °F 93% 29.95 in 3.7 mi Calm Calm - N/A Fog Patches of Fog
11:00 PM 38 °F - 38 °F 100% 29.94 in - South 3.5 mph - -  
11:00 PM 37.4 °F - 37.4 °F 100% 29.92 in 3.7 mi SSE 2.3 mph - N/A Fog Patches of Fog
11:30 PM 39.2 °F - 39.2 °F 100% 29.92 in 1.9 mi Calm Calm - N/A Fog Patches of Fog